| time (UTC) | temp F | wind direction | speed knots | gust knots | rain 1hr in | rain 24hr in | rain mn in | humidity % | barometer mb |
| 20260508012922 | 53 | 180 | 1.7 | 4.3 | 0.00 | 0.00 | 0.00 | 84 | 1013.0 |
| 20260508012409 | 54 | 112 | 0.9 | 4.3 | 0.00 | 0.00 | 0.00 | 84 | 1013.0 |
| 20260508011906 | 54 | 270 | 1.7 | 1.7 | 0.00 | 0.00 | 0.00 | 86 | 1013.0 |
| 20260508011407 | 54 | 180 | 0.0 | 0.0 | 0.00 | 0.00 | 0.00 | 86 | 1013.0 |
| 20260508010906 | 54 | 112 | 0.0 | 0.0 | 0.00 | 0.00 | 0.00 | 83 | 1013.0 |
| 20260508010409 | 54 | 112 | 0.0 | 1.7 | 0.00 | 0.00 | 0.00 | 84 | 1013.0 |
| 20260508005906 | 54 | 51 | 0.0 | 1.7 | 0.00 | 0.00 | 0.00 | 84 | 1013.0 |
| 20260508004907 | 54 | 112 | 0.0 | 0.0 | 0.00 | 0.00 | 0.00 | 86 | 1013.0 |
| 20260508004406 | 54 | 112 | 0.0 | 1.7 | 0.00 | 0.00 | 0.00 | 86 | 1013.0 |
| 20260508003906 | 54 | 112 | 0.9 | 1.7 | 0.00 | 0.00 | 0.00 | 87 | 1013.0 |
| 20260508002909 | 54 | 202 | 0.9 | 2.6 | 0.00 | 0.00 | 0.00 | 87 | 1014.0 |
| 20260508002407 | 54 | 183 | 1.7 | 2.6 | 0.00 | 0.00 | 0.00 | 86 | 1014.0 |
| 20260508001906 | 54 | 165 | 0.9 | 5.2 | 0.00 | 0.00 | 0.00 | 86 | 1014.0 |
| 20260508001410 | 54 | 202 | 2.6 | 5.2 | 0.00 | 0.00 | 0.00 | 86 | 1013.0 |
| 20260508000909 | 55 | 183 | 2.6 | 5.2 | 0.00 | 0.00 | 0.00 | 83 | 1013.0 |
| 20260508000406 | 56 | 248 | 0.0 | 1.7 | 0.00 | 0.00 | 0.00 | 81 | 1013.0 |
| 20260507234909 | 56 | 2 | 1.7 | 4.3 | 0.00 | 0.00 | 0.00 | 81 | 1012.0 |
| 20260507234407 | 56 | 112 | 0.9 | 4.3 | 0.00 | 0.00 | 0.00 | 81 | 1012.0 |
| 20260507233908 | 56 | 47 | 1.7 | 4.3 | 0.00 | 0.00 | 0.00 | 81 | 1012.0 |
| 20260507233409 | 56 | 50 | 0.0 | 1.7 | 0.00 | 0.00 | 0.00 | 81 | 1012.0 |
| 20260507231906 | 56 | 68 | 1.7 | 2.6 | 0.00 | 0.00 | 0.00 | 81 | 1013.0 |
| 20260507231406 | 56 | 180 | 0.0 | 0.0 | 0.00 | 0.00 | 0.00 | 79 | 1014.0 |
| 20260507230906 | 57 | 180 | 0.0 | 0.0 | 0.00 | 0.00 | 0.00 | 80 | 1014.0 |
| 20260507230406 | 57 | 180 | 0.0 | 1.7 | 0.00 | 0.00 | 0.00 | 80 | 1014.0 |
| 20260507224908 | 57 | 158 | 1.7 | 1.7 | 0.00 | 0.00 | 0.00 | 78 | 1014.0 |
| 20260507224407 | 58 | 180 | 0.0 | 2.6 | 0.00 | 0.00 | 0.00 | 79 | 1014.0 |
| 20260507223407 | 59 | 250 | 1.7 | 1.7 | 0.00 | 0.00 | 0.00 | 73 | 1014.0 |
| 20260507222906 | 60 | 247 | 0.9 | 2.6 | 0.00 | 0.00 | 0.00 | 72 | 1013.0 |
| 20260507221907 | 61 | 76 | 2.6 | 4.3 | 0.00 | 0.00 | 0.00 | 73 | 1013.0 |
| 20260507221406 | 61 | 90 | 2.6 | 4.3 | 0.00 | 0.00 | 0.00 | 74 | 1013.0 |
| 20260507220406 | 61 | 68 | 1.7 | 4.3 | 0.00 | 0.00 | 0.00 | 74 | 1013.0 |
| 20260507215906 | 61 | 90 | 2.6 | 4.3 | 0.00 | 0.00 | 0.00 | 73 | 1013.0 |
| 20260507215406 | 61 | 68 | 1.7 | 2.6 | 0.00 | 0.00 | 0.00 | 72 | 1013.0 |
| 20260507214906 | 61 | 45 | 0.0 | 1.7 | 0.00 | 0.00 | 0.00 | 70 | 1013.0 |
| 20260507214406 | 61 | 338 | 0.0 | 1.7 | 0.00 | 0.00 | 0.00 | 70 | 1014.0 |
| 20260507213906 | 62 | 287 | 0.9 | 2.6 | 0.00 | 0.00 | 0.00 | 69 | 1014.0 |
| 20260507213406 | 62 | 158 | 1.7 | 2.6 | 0.00 | 0.00 | 0.00 | 69 | 1014.0 |
| 20260507212907 | 62 | 135 | 1.7 | 2.6 | 0.00 | 0.00 | 0.00 | 70 | 1013.0 |
| 20260507212406 | 62 | 180 | 1.7 | 4.3 | 0.00 | 0.00 | 0.00 | 70 | 1013.0 |
| 20260507211909 | 62 | 225 | 0.0 | 4.3 | 0.00 | 0.00 | 0.00 | 70 | 1013.0 |
| 20260507211408 | 62 | 147 | 1.7 | 4.3 | 0.00 | 0.00 | 0.00 | 69 | 1014.0 |
| 20260507210906 | 62 | 158 | 1.7 | 4.3 | 0.00 | 0.00 | 0.00 | 70 | 1014.0 |
| 20260507204906 | 62 | 162 | 2.6 | 5.2 | 0.00 | 0.00 | 0.00 | 69 | 1013.0 |
| 20260507204406 | 62 | 180 | 2.6 | 7.8 | 0.00 | 0.00 | 0.00 | 70 | 1014.0 |
| 20260507203906 | 63 | 158 | 4.3 | 7.8 | 0.00 | 0.00 | 0.00 | 68 | 1014.0 |
| 20260507203406 | 64 | 163 | 5.2 | 7.8 | 0.00 | 0.00 | 0.00 | 67 | 1014.0 |
| 20260507202906 | 64 | 193 | 5.2 | 7.8 | 0.00 | 0.00 | 0.00 | 67 | 1013.0 |
| 20260507202406 | 63 | 198 | 2.6 | 7.0 | 0.00 | 0.00 | 0.00 | 70 | 1013.0 |
| 20260507201906 | 63 | 138 | 5.2 | 7.8 | 0.00 | 0.00 | 0.00 | 69 | 1013.0 |
| 20260507201409 | 63 | 136 | 6.1 | 7.8 | 0.00 | 0.00 | 0.00 | 69 | 1013.0 |
| 20260507200906 | 63 | 128 | 6.1 | 8.7 | 0.00 | 0.00 | 0.00 | 69 | 1013.0 |
| 20260507200409 | 62 | 111 | 6.1 | 8.7 | 0.00 | 0.00 | 0.00 | 69 | 1013.0 |
| 20260507195906 | 62 | 121 | 6.1 | 7.8 | 0.00 | 0.00 | 0.00 | 70 | 1013.0 |
| 20260507195406 | 62 | 120 | 6.1 | 7.8 | 0.00 | 0.00 | 0.00 | 70 | 1013.0 |
| 20260507194406 | 62 | 132 | 4.3 | 6.1 | 0.00 | 0.00 | 0.00 | 69 | 1013.0 |
| 20260507193906 | 62 | 139 | 2.6 | 5.2 | 0.00 | 0.00 | 0.00 | 68 | 1013.0 |
| 20260507193406 | 62 | 125 | 2.6 | 5.2 | 0.00 | 0.00 | 0.00 | 68 | 1013.0 |
| 20260507192413 | 63 | 123 | 3.5 | 5.2 | 0.00 | 0.00 | 0.00 | 68 | 1013.0 |
| 20260507191906 | 63 | 141 | 4.3 | 5.2 | 0.00 | 0.00 | 0.00 | 67 | 1013.0 |
| 20260507191406 | 63 | 131 | 2.6 | 5.2 | 0.00 | 0.00 | 0.00 | 66 | 1013.0 |
| 20260507190906 | 63 | 130 | 4.3 | 7.0 | 0.00 | 0.00 | 0.00 | 68 | 1013.0 |
| 20260507190421 | 63 | 138 | 4.3 | 7.0 | 0.00 | 0.00 | 0.00 | 66 | 1013.0 |
| 20260507185909 | 63 | 121 | 6.1 | 7.0 | 0.00 | 0.00 | 0.00 | 66 | 1013.0 |
| 20260507184906 | 64 | 134 | 2.6 | 6.1 | 0.00 | 0.00 | 0.00 | 64 | 1013.0 |
| 20260507183906 | 65 | 126 | 4.3 | 6.1 | 0.00 | 0.00 | 0.00 | 63 | 1013.0 |
| 20260507183408 | 65 | 127 | 3.5 | 4.3 | 0.00 | 0.00 | 0.00 | 61 | 1013.0 |
| 20260507181909 | 66 | 112 | 2.6 | 4.3 | 0.00 | 0.00 | 0.00 | 59 | 1013.0 |
| 20260507181406 | 68 | 123 | 1.7 | 2.6 | 0.00 | 0.00 | 0.00 | 55 | 1013.0 |
| 20260507180906 | 69 | 112 | 1.7 | 1.7 | 0.00 | 0.00 | 0.00 | 54 | 1013.0 |
| 20260507180406 | 69 | 112 | 1.7 | 1.7 | 0.00 | 0.00 | 0.00 | 53 | 1013.0 |
| 20260507175906 | 69 | 112 | 0.9 | 1.7 | 0.00 | 0.00 | 0.00 | 53 | 1013.0 |
| 20260507175406 | 70 | 112 | 1.7 | 1.7 | 0.00 | 0.00 | 0.00 | 52 | 1013.0 |
| 20260507174906 | 71 | 68 | 0.0 | 1.7 | 0.00 | 0.00 | 0.00 | 51 | 1013.0 |
| 20260507173913 | 71 | 39 | 0.9 | 4.3 | 0.00 | 0.00 | 0.00 | 49 | 1012.0 |
| 20260507173406 | 71 | 49 | 1.7 | 4.3 | 0.00 | 0.00 | 0.00 | 49 | 1012.0 |
| 20260507172405 | 72 | 31 | 1.7 | 5.2 | 0.00 | 0.00 | 0.00 | 48 | 1013.0 |
| 20260507171906 | 72 | 49 | 1.7 | 6.1 | 0.00 | 0.00 | 0.00 | 47 | 1013.0 |
| 20260507171406 | 73 | 49 | 2.6 | 6.1 | 0.00 | 0.00 | 0.00 | 47 | 1013.0 |
| 20260507170907 | 73 | 59 | 2.6 | 6.1 | 0.00 | 0.00 | 0.00 | 47 | 1013.0 |
| 20260507170406 | 73 | 37 | 1.7 | 5.2 | 0.00 | 0.00 | 0.00 | 48 | 1013.0 |
| 20260507165917 | 73 | 19 | 2.6 | 5.2 | 0.00 | 0.00 | 0.00 | 47 | 1013.0 |
| 20260507164906 | 73 | 68 | 0.9 | 2.6 | 0.00 | 0.00 | 0.00 | 47 | 1013.0 |
| 20260507164407 | 73 | 91 | 0.9 | 2.6 | 0.00 | 0.00 | 0.00 | 47 | 1013.0 |
| 20260507163917 | 73 | 68 | 0.9 | 5.2 | 0.00 | 0.00 | 0.00 | 48 | 1013.0 |
| 20260507163406 | 72 | 51 | 1.7 | 5.2 | 0.00 | 0.00 | 0.00 | 47 | 1013.0 |
| 20260507162906 | 72 | 90 | 2.6 | 5.2 | 0.00 | 0.00 | 0.00 | 47 | 1013.0 |
| 20260507162408 | 72 | 81 | 2.6 | 5.2 | 0.00 | 0.00 | 0.00 | 47 | 1013.0 |
| 20260507161909 | 73 | 68 | 2.6 | 6.1 | 0.00 | 0.00 | 0.00 | 47 | 1013.0 |
| 20260507161406 | 73 | 78 | 4.3 | 7.0 | 0.00 | 0.00 | 0.00 | 46 | 1013.0 |
| 20260507160906 | 74 | 72 | 2.6 | 7.0 | 0.00 | 0.00 | 0.00 | 46 | 1013.0 |
| 20260507155905 | 74 | 5 | 0.9 | 2.6 | 0.00 | 0.00 | 0.00 | 45 | 1012.0 |
| 20260507154411 | 73 | 163 | 0.9 | 2.6 | 0.00 | 0.00 | 0.00 | 45 | 1012.0 |
| 20260507153907 | 73 | 135 | 1.7 | 2.6 | 0.00 | 0.00 | 0.00 | 46 | 1012.0 |
| 20260507153409 | 74 | 150 | 0.0 | 4.3 | 0.00 | 0.00 | 0.00 | 45 | 1012.0 |
| 20260507152405 | 73 | 45 | 0.9 | 4.3 | 0.00 | 0.00 | 0.00 | 46 | 1013.0 |
| 20260507151906 | 73 | 28 | 2.6 | 5.2 | 0.00 | 0.00 | 0.00 | 45 | 1013.0 |
| 20260507151406 | 72 | 292 | 2.6 | 5.2 | 0.00 | 0.00 | 0.00 | 45 | 1012.0 |
| 20260507150406 | 72 | 290 | 1.7 | 5.2 | 0.00 | 0.00 | 0.00 | 46 | 1012.0 |
| 20260507145406 | 71 | 307 | 2.6 | 6.1 | 0.00 | 0.00 | 0.00 | 45 | 1013.0 |
| 20260507144906 | 71 | 292 | 2.6 | 6.1 | 0.00 | 0.00 | 0.00 | 44 | 1013.0 |
| 20260507144407 | 72 | 281 | 4.3 | 7.8 | 0.00 | 0.00 | 0.00 | 44 | 1013.0 |
| 20260507143906 | 72 | 307 | 2.6 | 7.8 | 0.00 | 0.00 | 0.00 | 45 | 1013.0 |
| 20260507143405 | 73 | 321 | 4.3 | 7.8 | 0.00 | 0.00 | 0.00 | 43 | 1013.0 |
| 20260507142906 | 73 | 115 | 1.7 | 8.7 | 0.00 | 0.00 | 0.00 | 46 | 1013.0 |
| 20260507141906 | 74 | 326 | 1.7 | 5.2 | 0.00 | 0.00 | 0.00 | 44 | 1013.0 |
| 20260507141408 | 74 | 349 | 2.6 | 6.1 | 0.00 | 0.00 | 0.00 | 42 | 1014.0 |
| 20260507140907 | 74 | 312 | 2.6 | 6.1 | 0.00 | 0.00 | 0.00 | 43 | 1014.0 |
| 20260507140406 | 74 | 289 | 2.6 | 7.0 | 0.00 | 0.00 | 0.00 | 44 | 1014.0 |
| 20260507135907 | 73 | 293 | 5.2 | 7.0 | 0.00 | 0.00 | 0.00 | 45 | 1014.0 |
| 20260507135406 | 74 | 280 | 2.6 | 4.3 | 0.00 | 0.00 | 0.00 | 48 | 1014.0 |
| 20260507134408 | 73 | 301 | 2.6 | 6.1 | 0.00 | 0.00 | 0.00 | 48 | 1014.0 |
| 20260507133906 | 73 | 294 | 3.5 | 7.8 | 0.00 | 0.00 | 0.00 | 48 | 1014.0 |
| 20260507133406 | 73 | 301 | 1.7 | 7.8 | 0.00 | 0.00 | 0.00 | 48 | 1014.0 |
| 20260507132906 | 73 | 270 | 3.5 | 7.8 | 0.00 | 0.00 | 0.00 | 48 | 1014.0 |
| 20260507132405 | 73 | 292 | 0.9 | 6.1 | 0.00 | 0.00 | 0.00 | 48 | 1014.0 |
| 20260507131906 | 73 | 328 | 1.7 | 5.2 | 0.00 | 0.00 | 0.00 | 48 | 1014.0 |
| 20260507131405 | 73 | 359 | 2.6 | 7.0 | 0.00 | 0.00 | 0.00 | 48 | 1015.0 |
| 20260507130907 | 72 | 295 | 4.3 | 7.0 | 0.00 | 0.00 | 0.00 | 47 | 1015.0 |
| 20260507130406 | 73 | 320 | 5.2 | 7.0 | 0.00 | 0.00 | 0.00 | 46 | 1015.0 |
| 20260507125410 | 72 | 297 | 5.2 | 7.0 | 0.00 | 0.00 | 0.00 | 47 | 1015.0 |
| 20260507124906 | 73 | 288 | 5.2 | 7.0 | 0.00 | 0.00 | 0.00 | 46 | 1015.0 |
| 20260507124406 | 73 | 334 | 3.5 | 8.7 | 0.00 | 0.00 | 0.00 | 47 | 1014.0 |
| 20260507123406 | 74 | 290 | 1.7 | 7.8 | 0.00 | 0.00 | 0.00 | 48 | 1014.0 |
| 20260507122909 | 73 | 188 | 1.7 | 7.8 | 0.00 | 0.00 | 0.00 | 49 | 1015.0 |
| 20260507122406 | 73 | 288 | 6.1 | 7.8 | 0.00 | 0.00 | 0.00 | 48 | 1015.0 |
| 20260507121905 | 73 | 314 | 2.6 | 7.0 | 0.00 | 0.00 | 0.00 | 50 | 1015.0 |
| 20260507120908 | 72 | 67 | 2.6 | 7.0 | 0.00 | 0.00 | 0.00 | 49 | 1015.0 |
| 20260507115909 | 72 | 310 | 1.7 | 7.8 | 0.00 | 0.00 | 0.00 | 51 | 1015.0 |
| 20260507115407 | 72 | 266 | 4.3 | 7.8 | 0.00 | 0.00 | 0.00 | 52 | 1015.0 |
| 20260507114405 | 72 | 291 | 4.3 | 7.8 | 0.00 | 0.00 | 0.00 | 52 | 1016.0 |
| 20260507113905 | 74 | 246 | 2.6 | 4.3 | 0.00 | 0.00 | 0.00 | 55 | 1016.0 |
| 20260507113405 | 73 | 221 | 1.7 | 4.3 | 0.00 | 0.00 | 0.00 | 56 | 1016.0 |
| 20260507112909 | 71 | 221 | 1.7 | 5.2 | 0.00 | 0.00 | 0.00 | 56 | 1015.0 |
| 20260507112405 | 72 | 78 | 0.9 | 7.0 | 0.00 | 0.00 | 0.00 | 59 | 1015.0 |
| 20260507111406 | 71 | 312 | 5.2 | 7.0 | 0.00 | 0.00 | 0.00 | 57 | 1015.0 |
| 20260507110410 | 70 | 255 | 1.7 | 4.3 | 0.00 | 0.00 | 0.00 | 61 | 1015.0 |
| 20260507105905 | 70 | 209 | 2.6 | 6.1 | 0.00 | 0.00 | 0.00 | 58 | 1015.0 |
| 20260507105406 | 70 | 22 | 3.5 | 6.1 | 0.00 | 0.00 | 0.00 | 61 | 1015.0 |
| 20260507104905 | 69 | 339 | 2.6 | 5.2 | 0.00 | 0.00 | 0.00 | 60 | 1015.0 |
| 20260507103905 | 70 | 302 | 2.6 | 5.2 | 0.00 | 0.00 | 0.00 | 63 | 1015.0 |
| 20260507103405 | 69 | 259 | 1.7 | 5.2 | 0.00 | 0.00 | 0.00 | 67 | 1015.0 |
| 20260507102905 | 68 | 170 | 1.7 | 5.2 | 0.00 | 0.00 | 0.00 | 66 | 1015.0 |
| 20260507101405 | 67 | 290 | 2.6 | 5.2 | 0.00 | 0.00 | 0.00 | 67 | 1015.0 |
| 20260507100406 | 66 | 254 | 3.5 | 5.2 | 0.00 | 0.00 | 0.00 | 68 | 1015.0 |
| 20260507095906 | 67 | 293 | 3.5 | 5.2 | 0.00 | 0.00 | 0.00 | 67 | 1015.0 |
| 20260507095405 | 67 | 52 | 0.9 | 4.3 | 0.00 | 0.00 | 0.00 | 69 | 1015.0 |
| 20260507094906 | 67 | 68 | 0.9 | 4.3 | 0.00 | 0.00 | 0.00 | 68 | 1015.0 |
| 20260507094405 | 67 | 188 | 0.9 | 5.2 | 0.00 | 0.00 | 0.00 | 68 | 1015.0 |
| 20260507093905 | 67 | 328 | 2.6 | 5.2 | 0.00 | 0.00 | 0.00 | 67 | 1015.0 |
| 20260507091905 | 66 | 178 | 1.7 | 4.3 | 0.00 | 0.00 | 0.00 | 70 | 1015.0 |
| 20260507091410 | 66 | 273 | 0.9 | 4.3 | 0.00 | 0.00 | 0.00 | 74 | 1015.0 |
| 20260507090905 | 66 | 333 | 0.9 | 4.3 | 0.00 | 0.00 | 0.00 | 75 | 1015.0 |
| 20260507090407 | 65 | 338 | 0.9 | 4.3 | 0.00 | 0.00 | 0.00 | 76 | 1015.0 |
| 20260507085905 | 65 | 358 | 0.9 | 2.6 | 0.00 | 0.00 | 0.00 | 76 | 1015.0 |
| 20260507085405 | 64 | 267 | 1.7 | 7.8 | 0.00 | 0.00 | 0.00 | 75 | 1015.0 |
| 20260507084905 | 64 | 335 | 0.9 | 7.8 | 0.00 | 0.00 | 0.00 | 76 | 1015.0 |
| 20260507084421 | 64 | 254 | 3.5 | 7.8 | 0.00 | 0.00 | 0.00 | 75 | 1015.0 |
| 20260507083905 | 64 | 302 | 1.7 | 7.8 | 0.00 | 0.00 | 0.00 | 76 | 1015.0 |
| 20260507083407 | 65 | 296 | 4.3 | 7.8 | 0.00 | 0.00 | 0.00 | 76 | 1015.0 |
| 20260507082905 | 64 | 277 | 2.6 | 7.0 | 0.00 | 0.00 | 0.00 | 78 | 1015.0 |
| 20260507082405 | 64 | 237 | 4.3 | 7.0 | 0.00 | 0.00 | 0.00 | 76 | 1015.0 |
| 20260507081905 | 65 | 252 | 2.6 | 7.0 | 0.00 | 0.00 | 0.00 | 76 | 1015.0 |
| 20260507080907 | 63 | 180 | 3.5 | 5.2 | 0.00 | 0.00 | 0.00 | 79 | 1015.0 |
| 20260507080405 | 64 | 215 | 1.7 | 5.2 | 0.00 | 0.00 | 0.00 | 78 | 1015.0 |
| 20260507075905 | 64 | 194 | 1.7 | 6.1 | 0.00 | 0.00 | 0.00 | 79 | 1015.0 |
| 20260507075407 | 64 | 212 | 1.7 | 6.1 | 0.00 | 0.00 | 0.00 | 79 | 1015.0 |
| 20260507074905 | 63 | 205 | 2.6 | 5.2 | 0.00 | 0.00 | 0.00 | 79 | 1015.0 |
| 20260507074412 | 63 | 216 | 3.5 | 5.2 | 0.00 | 0.00 | 0.00 | 80 | 1015.0 |
| 20260507073905 | 63 | 240 | 1.7 | 7.0 | 0.00 | 0.00 | 0.00 | 80 | 1015.0 |
| 20260507073408 | 63 | 231 | 1.7 | 7.0 | 0.00 | 0.00 | 0.00 | 81 | 1015.0 |
| 20260507072907 | 63 | 267 | 1.7 | 7.0 | 0.00 | 0.00 | 0.00 | 80 | 1015.0 |
| 20260507071905 | 62 | 246 | 2.6 | 5.2 | 0.00 | 0.00 | 0.00 | 81 | 1015.0 |
| 20260507071406 | 63 | 184 | 1.7 | 5.2 | 0.00 | 0.00 | 0.00 | 83 | 1015.0 |
| 20260507070906 | 62 | 250 | 1.7 | 6.1 | 0.00 | 0.00 | 0.00 | 84 | 1015.0 |
| 20260507070406 | 61 | 255 | 1.7 | 6.1 | 0.00 | 0.00 | 0.00 | 84 | 1015.0 |
| 20260507065905 | 61 | 251 | 2.6 | 5.2 | 0.00 | 0.00 | 0.00 | 84 | 1015.0 |
| 20260507065405 | 61 | 202 | 1.7 | 5.2 | 0.00 | 0.00 | 0.00 | 86 | 1015.0 |
| 20260507064408 | 61 | 248 | 0.9 | 4.3 | 0.00 | 0.00 | 0.00 | 86 | 1014.0 |
| 20260507063907 | 60 | 238 | 1.7 | 4.3 | 0.00 | 0.00 | 0.00 | 86 | 1014.0 |
| 20260507063405 | 60 | 183 | 0.0 | 0.9 | 0.00 | 0.00 | 0.00 | 87 | 1014.0 |
| 20260507062905 | 60 | 189 | 0.0 | 2.6 | 0.00 | 0.00 | 0.00 | 87 | 1014.0 |
| 20260507062405 | 60 | 180 | 1.7 | 4.3 | 0.00 | 0.00 | 0.00 | 87 | 1014.0 |
| 20260507061405 | 61 | 180 | 0.0 | 0.9 | 0.00 | 0.00 | 0.00 | 89 | 1015.0 |
| 20260507060905 | 60 | 180 | 0.0 | 2.6 | 0.00 | 0.00 | 0.00 | 89 | 1015.0 |
| 20260507060406 | 59 | 183 | 0.0 | 2.6 | 0.00 | 0.00 | 0.00 | 89 | 1015.0 |
| 20260507055905 | 59 | 225 | 0.0 | 1.7 | 0.00 | 0.00 | 0.00 | 89 | 1014.0 |
| 20260507055405 | 59 | 261 | 0.9 | 2.6 | 0.00 | 0.00 | 0.00 | 90 | 1014.0 |
| 20260507054905 | 59 | 248 | 0.0 | 2.6 | 0.00 | 0.00 | 0.00 | 90 | 1014.0 |
| 20260507054405 | 59 | 225 | 0.0 | 0.0 | 0.00 | 0.00 | 0.00 | 90 | 1014.0 |
| 20260507053905 | 59 | 225 | 0.0 | 0.0 | 0.00 | 0.00 | 0.00 | 91 | 1014.0 |
| 20260507053405 | 59 | 158 | 0.0 | 1.7 | 0.00 | 0.00 | 0.00 | 91 | 1014.0 |
| 20260507052905 | 58 | 270 | 0.0 | 2.6 | 0.00 | 0.00 | 0.00 | 91 | 1014.0 |
| 20260507051905 | 58 | 248 | 1.7 | 2.6 | 0.00 | 0.00 | 0.00 | 92 | 1014.0 |
| 20260507051405 | 58 | 267 | 0.9 | 2.6 | 0.00 | 0.00 | 0.00 | 92 | 1015.0 |
| 20260507050405 | 58 | 225 | 0.9 | 2.6 | 0.00 | 0.00 | 0.00 | 92 | 1015.0 |
| 20260507045906 | 58 | 223 | 0.9 | 2.6 | 0.00 | 0.00 | 0.00 | 92 | 1015.0 |
| 20260507045405 | 57 | 269 | 2.6 | 4.3 | 0.00 | 0.00 | 0.00 | 92 | 1015.0 |
| 20260507044405 | 58 | 232 | 1.7 | 4.3 | 0.00 | 0.00 | 0.00 | 94 | 1015.0 |
| 20260507043906 | 58 | 226 | 1.7 | 5.2 | 0.00 | 0.00 | 0.00 | 94 | 1015.0 |
| 20260507042905 | 57 | 243 | 2.6 | 5.2 | 0.00 | 0.00 | 0.00 | 94 | 1015.0 |
| 20260507041905 | 57 | 224 | 1.7 | 4.3 | 0.00 | 0.00 | 0.00 | 94 | 1015.0 |
| 20260507040905 | 57 | 240 | 1.7 | 2.6 | 0.00 | 0.00 | 0.00 | 95 | 1015.0 |
| 20260507040405 | 57 | 245 | 0.9 | 2.6 | 0.00 | 0.00 | 0.00 | 95 | 1015.0 |
| 20260507035405 | 58 | 225 | 0.0 | 4.3 | 0.00 | 0.00 | 0.00 | 95 | 1015.0 |
| 20260507034905 | 58 | 248 | 0.0 | 4.3 | 0.00 | 0.00 | 0.00 | 95 | 1015.0 |
| 20260507033905 | 58 | 212 | 0.9 | 2.6 | 0.00 | 0.00 | 0.00 | 95 | 1015.0 |
| 20260507033405 | 58 | 202 | 0.0 | 1.7 | 0.00 | 0.00 | 0.00 | 94 | 1015.0 |
| 20260507032905 | 58 | 201 | 0.9 | 1.7 | 0.00 | 0.00 | 0.00 | 94 | 1015.0 |
| 20260507032405 | 57 | 202 | 0.0 | 1.7 | 0.00 | 0.00 | 0.00 | 94 | 1015.0 |
| 20260507031904 | 57 | 234 | 0.9 | 4.3 | 0.00 | 0.00 | 0.00 | 94 | 1015.0 |
| 20260507031406 | 57 | 225 | 0.0 | 4.3 | 0.00 | 0.00 | 0.00 | 93 | 1015.0 |
| 20260507030904 | 57 | 243 | 1.7 | 4.3 | 0.00 | 0.00 | 0.00 | 92 | 1015.0 |
| 20260507030405 | 58 | 214 | 1.7 | 4.3 | 0.00 | 0.00 | 0.00 | 92 | 1015.0 |
| 20260507025405 | 58 | 247 | 0.9 | 5.2 | 0.00 | 0.00 | 0.00 | 92 | 1014.0 |
| 20260507024905 | 58 | 237 | 1.7 | 5.2 | 0.00 | 0.00 | 0.00 | 92 | 1014.0 |
| 20260507023405 | 58 | 247 | 1.7 | 4.3 | 0.00 | 0.00 | 0.00 | 92 | 1014.0 |
| 20260507022905 | 58 | 240 | 1.7 | 2.6 | 0.00 | 0.00 | 0.00 | 91 | 1015.0 |
| 20260507022405 | 58 | 248 | 1.7 | 2.6 | 0.00 | 0.00 | 0.00 | 91 | 1015.0 |
| 20260507021905 | 58 | 248 | 0.0 | 1.7 | 0.00 | 0.00 | 0.00 | 91 | 1015.0 |
| 20260507021405 | 58 | 260 | 0.9 | 1.7 | 0.00 | 0.00 | 0.00 | 91 | 1015.0 |
| 20260507020906 | 58 | 248 | 0.9 | 1.7 | 0.00 | 0.00 | 0.00 | 91 | 1015.0 |
| 20260507020410 | 58 | 256 | 1.7 | 2.6 | 0.00 | 0.00 | 0.00 | 91 | 1015.0 |
| 20260507015905 | 58 | 236 | 0.9 | 4.3 | 0.00 | 0.00 | 0.00 | 91 | 1015.0 |
| 20260507014907 | 58 | 286 | 1.7 | 2.6 | 0.00 | 0.00 | 0.00 | 91 | 1015.0 |
| 20260507014407 | 58 | 292 | 1.7 | 2.6 | 0.00 | 0.00 | 0.00 | 92 | 1014.0 |
| 20260507013912 | 58 | 257 | 0.9 | 2.6 | 0.00 | 0.00 | 0.00 | 92 | 1014.0 |
| 20260507013406 | 58 | 248 | 1.7 | 4.3 | 0.00 | 0.00 | 0.00 | 94 | 1014.0 |